Date,TemperatureHighF,TemperatureAvgF,TemperatureLowF,DewpointHighF,DewpointAvgF,DewpointLowF,HumidityHigh,HumidityAvg,HumidityLow,PressureMaxIn,PressureMinIn,WindSpeedMaxMPH,WindSpeedAvgMPH,GustSpeedMaxMPH,PrecipitationSumIn
2014-3-1,37.0,26.5,21.0,34.0,16.3,-99.9,90,69,55,0.00,40.00,14,10,0,0.00
2014-3-2,26.0,23.0,21.0,25.0,21.6,19.0,96,93,90,0.00,40.00,8,6,0,0.00
2014-3-3,53.0,45.4,38.0,42.0,37.2,32.0,88,73,60,0.00,40.00,20,12,0,0.05
2014-3-4,56.0,46.4,37.0,43.0,37.6,31.0,85,72,54,0.00,40.00,16,6,0,0.00
2014-3-5,57.0,50.7,44.0,52.0,44.0,38.0,90,77,68,0.00,40.00,18,10,0,0.35
2014-3-6,54.0,47.6,41.0,41.0,36.4,32.0,82,65,46,0.00,40.00,27,16,0,0.03
2014-3-7,56.0,45.9,38.0,42.0,37.7,34.0,85,74,56,0.00,40.00,11,6,0,0.00
2014-3-8,57.0,46.1,36.0,46.0,34.4,-99.9,90,68,47,0.00,40.00,13,7,0,0.00
2014-3-9,56.0,52.2,48.0,55.0,46.2,43.0,94,80,65,0.00,40.00,18,9,0,0.15
2014-3-10,49.0,44.9,41.0,44.0,37.1,32.0,91,74,57,0.00,40.00,22,14,0,0.01
2014-3-11,53.0,42.5,32.0,32.0,28.6,22.0,85,59,30,0.00,40.00,15,8,0,0.00
2014-3-12,60.0,44.4,33.0,34.0,29.6,26.0,82,58,36,0.00,40.00,7,4,0,0.00
2014-3-13,61.0,47.3,36.0,34.0,29.9,25.0,77,52,28,0.00,40.00,15,8,0,0.00
2014-3-14,55.0,49.2,42.0,41.0,35.6,27.0,81,61,33,0.00,40.00,25,13,0,0.02
2014-3-15,62.0,47.1,35.0,44.0,29.7,-99.9,81,58,29,0.00,40.00,13,6,0,0.00
2014-3-16,61.0,52.9,43.0,46.0,38.2,29.0,86,59,35,0.00,40.00,21,11,0,0.02
2014-3-17,44.0,39.7,36.0,36.0,26.4,22.0,82,58,43,0.00,40.00,28,24,0,0.00
2014-3-18,52.0,40.4,27.0,29.0,25.7,23.0,86,58,33,0.00,40.00,17,6,0,0.00
2014-3-19,52.0,40.5,31.0,37.0,29.8,25.0,82,66,47,0.00,40.00,20,10,0,0.00
2014-3-20,47.0,37.8,31.0,30.0,21.2,-99.9,72,55,31,0.00,40.00,22,14,0,0.00
2014-3-21,47.0,36.8,26.0,28.0,21.6,15.0,84,57,27,0.00,40.00,10,5,0,0.00
2014-3-22,54.0,35.8,25.0,24.0,15.7,-99.9,71,50,21,0.00,40.00,6,5,0,0.00
2014-3-23,59.0,45.2,31.0,34.0,27.1,22.0,69,51,30,0.00,40.00,8,5,0,0.00
2014-3-24,58.0,45.2,34.0,29.0,26.6,24.0,77,50,28,0.00,40.00,11,6,0,0.00
2014-3-25,59.0,46.0,39.0,40.0,31.4,25.0,86,57,35,0.00,40.00,24,10,0,0.00
2014-3-26,52.0,42.6,33.0,41.0,34.2,30.0,87,74,42,0.00,40.00,13,7,0,0.00
2014-3-27,52.0,43.7,38.0,38.0,34.7,32.0,82,71,51,0.00,40.00,16,10,0,0.01
2014-3-28,54.0,43.8,38.0,49.0,40.3,33.0,99,87,74,0.00,40.00,11,5,0,0.33
2014-3-29,56.0,44.0,37.0,42.0,31.2,-99.9,88,66,35,0.00,40.00,23,11,0,0.00
2014-3-30,50.0,41.6,34.0,34.0,31.8,28.0,86,69,42,0.00,40.00,13,8,0,0.00
2014-3-31,54.0,42.2,31.0,37.0,31.3,27.0,88,67,42,0.00,40.00,14,7,0,0.00